Change the Weather History Date:

Sunday, November 4, 2012

  Actual Average (KHBI) Record (KHBI)
Temperature  
Mean Temperature 50 °F -  
Max Temperature 59 °F 65 °F 82 °F (1946)
Min Temperature 40 °F 45 °F 24 °F (1954)
Degree Days  
Heating Degree Days 16    
Moisture  
Dew Point 40 °F    
Average Humidity 66    
Maximum Humidity 88    
Minimum Humidity 53    
Precipitation  
Precipitation 0.00 in - - ()
Sea Level Pressure  
Sea Level Pressure 30.03 in    
Wind  
Wind Speed 4 mph (NE)    
Max Wind Speed 10 mph    
Max Gust Speed -    
Visibility 10 miles    
Events      
Averages and records for this station are not official NWS values.
T = Trace of Precipitation, MM = Missing Value Source: NWS Daily Summary

Daily Weather History Graph

Daily Weather History Graph

Search for Another Location

Airport or City:

Trip Planner

Search our weather history database for the weather conditions in past years. The results will help you decide how hot, cold, wet, or windy it might be!

Date:

Astronomy

Nov. 04, 2012 Rise Set
Actual Time 6:45 AM EST 5:22 PM EST
Civil Twilight 6:19 AM EST 5:48 PM EST
Nautical Twilight 5:48 AM EST 6:19 PM EST
Astronomical Twilight 5:19 AM EST 6:48 PM EST
Moon 10:00 PM EST (11/4) 11:25 AM EST (11/4)
Length of Visible Light 11h 29m
Length of Day
10h 36m
Waning Gibbous, 72% of the Moon is Illuminated
Nov 4
Waning Gibbous
Nov 6
Last Quarter
Nov 13
New
Nov 20
First Quarter
Nov 28
Full

Hourly Weather History & Observations

Time (EST) Temp. Windchill Dew Point Humidity Pressure Visibility Wind Dir Wind Speed Gust Speed Precip Events Conditions
12:15 AM 40.6 °F - 37.4 °F 88% 30.06 in 10.0 mi Calm Calm - N/A   Clear
12:35 AM 41.2 °F - 37.6 °F 87% 30.06 in 10.0 mi North - - N/A   Clear
12:55 AM 41.9 °F - 38.5 °F 88% 30.07 in 10.0 mi North - - N/A   Scattered Clouds
1:15 AM 48.7 °F - 43.3 °F 82% 30.07 in 10.0 mi ENE 4.6 mph - N/A   Overcast
1:35 AM 49.6 °F - 37.9 °F 64% 30.07 in 10.0 mi ENE 6.9 mph - N/A   Overcast
1:55 AM 49.5 °F - 36.1 °F 60% 30.06 in 10.0 mi ENE 5.8 mph - N/A   Overcast
1:15 AM 48.7 °F - 35.2 °F 60% 30.05 in 10.0 mi East 5.8 mph - N/A   Scattered Clouds
1:35 AM 46.4 °F - 35.6 °F 66% 30.05 in 10.0 mi Calm Calm - N/A   Clear
1:55 AM 47.7 °F - 34.9 °F 61% 30.05 in 10.0 mi Calm Calm - N/A   Scattered Clouds
2:15 AM 45.7 °F 44.4 °F 36.5 °F 70% 30.06 in 10.0 mi North 3.5 mph - N/A   Scattered Clouds
2:35 AM 45.9 °F - 36.1 °F 69% 30.05 in 10.0 mi Calm Calm - N/A   Clear
2:55 AM 45.3 °F - 36.3 °F 71% 30.04 in 10.0 mi Calm Calm - N/A   Mostly Cloudy
3:15 AM 47.1 °F - 36.5 °F 67% 30.03 in 10.0 mi NE 4.6 mph - N/A   Overcast
3:35 AM 47.7 °F - 36.3 °F 65% 30.02 in 10.0 mi NE 3.5 mph - N/A   Overcast
3:55 AM 47.5 °F - 36.7 °F 66% 30.02 in 10.0 mi Calm Calm - N/A   Overcast
4:15 AM 47.5 °F - 37.0 °F 67% 30.02 in 10.0 mi Calm Calm - N/A   Overcast
4:35 AM 46.9 °F - 37.8 °F 70% 30.02 in 10.0 mi Calm Calm - N/A   Mostly Cloudy
4:55 AM 46.6 °F - 37.4 °F 70% 30.02 in 10.0 mi NNE 3.5 mph - N/A   Clear
5:15 AM 46.2 °F 44.1 °F 37.2 °F 71% 30.03 in 10.0 mi NE 4.6 mph - N/A   Clear
5:35 AM 46.2 °F 44.1 °F 37.4 °F 71% 30.04 in 10.0 mi NNE 4.6 mph - N/A   Clear
5:55 AM 45.5 °F 44.2 °F 37.4 °F 73% 30.04 in 10.0 mi NNE 3.5 mph - N/A   Clear
6:15 AM 44.4 °F 41.2 °F 37.6 °F 77% 30.03 in 10.0 mi ENE 5.8 mph - N/A   Clear
6:35 AM 45.3 °F 42.3 °F 37.9 °F 75% 30.04 in 10.0 mi NE 5.8 mph - N/A   Scattered Clouds
6:55 AM 45.9 °F 42.9 °F 37.4 °F 72% 30.04 in 10.0 mi NE 5.8 mph - N/A   Overcast
7:15 AM 46.8 °F - 37.0 °F 69% 30.06 in 10.0 mi NE 4.6 mph - N/A   Overcast
7:35 AM 47.3 °F - 36.9 °F 67% 30.06 in 10.0 mi ENE 6.9 mph - N/A   Overcast
7:55 AM 47.5 °F - 35.8 °F 64% 30.06 in 10.0 mi NE 4.6 mph - N/A   Overcast
8:15 AM 48.2 °F - 36.5 °F 64% 30.07 in 10.0 mi NE 5.8 mph - N/A   Overcast
8:35 AM 48.6 °F - 36.5 °F 63% 30.05 in 10.0 mi ENE 10.4 mph - N/A   Overcast
8:55 AM 48.9 °F - 36.9 °F 63% 30.06 in 10.0 mi ENE 8.1 mph - N/A   Overcast
9:15 AM 50.0 °F - 37.6 °F 62% 30.05 in 10.0 mi NE 8.1 mph - N/A   Mostly Cloudy
9:35 AM 50.4 °F - 37.9 °F 62% 30.05 in 10.0 mi NNE 6.9 mph - N/A   Clear
9:55 AM 52.2 °F - 39.0 °F 61% 30.05 in 10.0 mi NNE 4.6 mph - N/A   Clear
10:15 AM 52.9 °F - 39.6 °F 61% 30.05 in 10.0 mi NE 9.2 mph - N/A   Clear
10:35 AM 54.1 °F - 40.3 °F 59% 30.05 in 10.0 mi ENE 8.1 mph - N/A   Clear
10:55 AM 55.6 °F - 40.8 °F 58% 30.05 in 10.0 mi North 4.6 mph - N/A   Clear
11:15 AM 54.9 °F - 41.2 °F 60% 30.04 in 7.0 mi ENE 5.8 mph - N/A   Clear
11:35 AM 55.8 °F - 41.7 °F 59% 30.04 in 10.0 mi North 4.6 mph - N/A   Clear
11:55 AM 56.5 °F - 42.3 °F 59% 30.03 in 7.0 mi NE 5.8 mph - N/A   Scattered Clouds
12:15 PM 56.5 °F - 41.9 °F 58% 30.02 in 10.0 mi North 4.6 mph - N/A   Mostly Cloudy
12:35 PM 57.0 °F - 42.6 °F 59% 30.02 in 10.0 mi ENE 5.8 mph - N/A   Overcast
12:55 PM 57.4 °F - 42.4 °F 57% 30.01 in 10.0 mi NE 8.1 mph - N/A   Overcast
1:15 PM 57.7 °F - 42.3 °F 56% 30.00 in 10.0 mi NE 5.8 mph - N/A   Overcast
1:35 PM 59.2 °F - 42.3 °F 53% 30.00 in 10.0 mi ENE 5.8 mph - N/A   Overcast
1:55 PM 58.5 °F - 41.9 °F 54% 30.00 in 10.0 mi ENE 6.9 mph - N/A   Overcast
2:15 PM 59.2 °F - 42.1 °F 53% 30.00 in 10.0 mi NE 6.9 mph - N/A   Overcast
2:35 PM 58.5 °F - 42.3 °F 55% 30.00 in 10.0 mi ENE 4.6 mph - N/A   Mostly Cloudy
2:55 PM 58.5 °F - 41.9 °F 54% 30.00 in 10.0 mi NE 5.8 mph - N/A   Mostly Cloudy
3:15 PM 58.5 °F - 42.1 °F 55% 30.01 in 5.0 mi NE 5.8 mph - N/A   Haze
3:35 PM 58.3 °F - 42.4 °F 56% 30.01 in 7.0 mi East 5.8 mph - N/A   Mostly Cloudy
3:55 PM 58.1 °F - 42.8 °F 57% 30.01 in 10.0 mi Calm Calm - N/A   Mostly Cloudy
4:15 PM 57.6 °F - 42.6 °F 57% 30.01 in 7.0 mi NNE 3.5 mph - N/A   Overcast
4:35 PM 57.2 °F - 42.6 °F 58% 30.01 in 10.0 mi Calm Calm - N/A   Overcast
4:55 PM 56.1 °F - 43.7 °F 63% 30.01 in 10.0 mi NE 3.5 mph - N/A   Mostly Cloudy
5:15 PM 55.4 °F - 43.3 °F 64% 30.01 in 10.0 mi NE 3.5 mph - N/A   Mostly Cloudy
5:35 PM 54.9 °F - 43.2 °F 65% 30.01 in 10.0 mi Calm Calm - N/A   Mostly Cloudy
5:55 PM 53.1 °F - 43.5 °F 70% 30.00 in 10.0 mi NNE 5.8 mph - N/A   Mostly Cloudy
6:15 PM 53.1 °F - 42.8 °F 68% 30.01 in 10.0 mi NNE 4.6 mph - N/A   Scattered Clouds
6:35 PM 52.7 °F - 42.8 °F 69% 30.00 in 10.0 mi NNE 5.8 mph - N/A   Scattered Clouds
6:55 PM 53.4 °F - 42.8 °F 67% 30.01 in 10.0 mi NE 4.6 mph - N/A   Scattered Clouds
7:15 PM 53.6 °F - 42.8 °F 67% 30.01 in 10.0 mi ENE 3.5 mph - N/A   Mostly Cloudy
7:35 PM 53.6 °F - 42.8 °F 67% 30.02 in 10.0 mi Calm Calm - N/A   Overcast
7:55 PM 52.0 °F - 44.8 °F 76% 30.03 in 10.0 mi Calm Calm - N/A   Overcast
8:15 PM 51.8 °F - 44.1 °F 75% 30.03 in 10.0 mi NE 4.6 mph - N/A   Overcast
8:35 PM 51.3 °F - 43.9 °F 76% 30.03 in 10.0 mi ENE 4.6 mph - N/A   Overcast
8:55 PM 52.0 °F - 43.3 °F 72% 30.04 in 10.0 mi NE 5.8 mph - N/A   Overcast
9:15 PM 52.0 °F - 42.1 °F 69% 30.04 in 10.0 mi NE 5.8 mph - N/A   Overcast
9:35 PM 52.2 °F - 41.9 °F 68% 30.05 in 10.0 mi ENE 4.6 mph - N/A   Overcast
9:55 PM 52.0 °F - 41.2 °F 67% 30.04 in 10.0 mi ENE 5.8 mph - N/A   Overcast
10:15 PM 51.4 °F - 41.0 °F 68% 30.04 in 10.0 mi ENE 8.1 mph - N/A   Overcast
10:35 PM 51.1 °F - 41.4 °F 69% 30.03 in 10.0 mi ENE 5.8 mph - N/A   Overcast
10:55 PM 50.4 °F - 42.1 °F 73% 30.03 in 10.0 mi NE 3.5 mph - N/A   Overcast